Time,TemperatureF,DewpointF,PressureIn,WindDirection,WindDirectionDegrees,WindSpeedMPH,WindSpeedGustMPH,Humidity,HourlyPrecipIn,Conditions,Clouds,dailyrainin,SoftwareType,DateUTC
2013-01-12 00:02:00,54.1,48.0,29.71,South,186,19.0,21.0,81,0.00,,,0.00,weatherlink.com 1.10,2013-01-12 06:02:00,
2013-01-12 00:17:00,54.2,49.0,29.72,SSW,212,15.0,22.0,81,0.00,,,0.00,weatherlink.com 1.10,2013-01-12 06:17:00,
2013-01-12 00:32:00,54.2,49.0,29.72,South,191,10.0,22.0,81,0.00,,,0.00,weatherlink.com 1.10,2013-01-12 06:32:00,
2013-01-12 00:47:00,54.2,48.0,29.72,SW,214,12.0,19.0,80,0.00,,,0.00,weatherlink.com 1.10,2013-01-12 06:47:00,
2013-01-12 01:02:00,54.0,48.0,29.72,SW,231,13.0,19.0,81,0.00,,,0.00,weatherlink.com 1.10,2013-01-12 07:02:00,
2013-01-12 01:17:00,53.8,48.0,29.72,SSW,197,6.0,16.0,81,0.00,,,0.00,weatherlink.com 1.10,2013-01-12 07:17:00,
2013-01-12 01:32:00,53.9,48.0,29.73,SSE,153,10.0,17.0,81,0.00,,,0.00,weatherlink.com 1.10,2013-01-12 07:32:00,
2013-01-12 01:47:00,53.8,48.0,29.75,SSW,195,10.0,24.0,81,0.00,,,0.00,weatherlink.com 1.10,2013-01-12 07:47:00,
2013-01-12 02:02:00,53.7,48.0,29.75,South,176,9.0,15.0,81,0.00,,,0.00,weatherlink.com 1.10,2013-01-12 08:02:00,
2013-01-12 02:17:00,53.6,48.0,29.75,SW,218,6.0,16.0,82,0.00,,,0.00,weatherlink.com 1.10,2013-01-12 08:17:00,
2013-01-12 02:32:00,53.6,48.0,29.75,SW,226,9.0,18.0,82,0.00,,,0.00,weatherlink.com 1.10,2013-01-12 08:32:00,
2013-01-12 02:47:00,53.5,48.0,29.77,SW,229,8.0,16.0,82,0.00,,,0.00,weatherlink.com 1.10,2013-01-12 08:47:00,
2013-01-12 03:02:00,53.4,48.0,29.76,SSW,193,6.0,14.0,82,0.00,,,0.00,weatherlink.com 1.10,2013-01-12 09:02:00,
2013-01-12 03:17:00,53.5,48.0,29.76,WSW,245,4.0,14.0,82,0.00,,,0.00,weatherlink.com 1.10,2013-01-12 09:17:00,
2013-01-12 03:32:00,53.5,48.0,29.76,WSW,238,6.0,12.0,82,0.00,,,0.00,weatherlink.com 1.10,2013-01-12 09:32:00,
2013-01-12 03:47:00,53.4,48.0,29.77,WSW,240,4.0,13.0,82,0.00,,,0.00,weatherlink.com 1.10,2013-01-12 09:47:00,
2013-01-12 04:02:00,53.3,48.0,29.77,WSW,240,9.0,12.0,82,0.00,,,0.00,weatherlink.com 1.10,2013-01-12 10:02:00,
2013-01-12 04:17:00,53.0,48.0,29.78,SW,224,4.0,10.0,82,0.00,,,0.00,weatherlink.com 1.10,2013-01-12 10:17:00,
2013-01-12 04:32:00,52.9,48.0,29.78,South,189,7.0,10.0,82,0.00,,,0.00,weatherlink.com 1.10,2013-01-12 10:32:00,
2013-01-12 04:47:00,52.8,47.0,29.78,SSW,204,6.0,10.0,82,0.00,,,0.00,weatherlink.com 1.10,2013-01-12 10:47:00,
2013-01-12 05:02:00,52.6,48.0,29.79,SSW,197,3.0,8.0,83,0.00,,,0.00,weatherlink.com 1.10,2013-01-12 11:02:00,
2013-01-12 05:17:00,52.3,47.0,29.79,SW,226,4.0,7.0,83,0.00,,,0.00,weatherlink.com 1.10,2013-01-12 11:17:00,
2013-01-12 05:32:00,52.1,47.0,29.80,SW,233,3.0,7.0,83,0.00,,,0.00,weatherlink.com 1.10,2013-01-12 11:32:00,
2013-01-12 05:47:00,52.3,47.0,29.80,West,262,3.0,7.0,83,0.00,,,0.00,weatherlink.com 1.10,2013-01-12 11:47:00,
2013-01-12 06:02:00,52.9,47.0,29.82,WNW,285,6.0,8.0,80,0.00,,,0.00,weatherlink.com 1.10,2013-01-12 12:02:00,
2013-01-12 06:17:00,53.4,45.0,29.82,West,266,10.0,11.0,72,0.00,,,0.00,weatherlink.com 1.10,2013-01-12 12:17:00,
2013-01-12 06:32:00,53.4,43.0,29.84,WNW,283,6.0,12.0,67,0.00,,,0.00,weatherlink.com 1.10,2013-01-12 12:32:00,
2013-01-12 06:48:00,52.5,42.0,29.86,West,276,4.0,9.0,68,0.00,,,0.00,weatherlink.com 1.10,2013-01-12 12:48:00,
2013-01-12 07:03:00,51.5,39.0,29.88,WNW,285,4.0,11.0,62,0.00,,,0.00,weatherlink.com 1.10,2013-01-12 13:03:00,
2013-01-12 07:18:00,50.2,37.0,29.89,NW,307,4.0,12.0,62,0.00,,,0.00,weatherlink.com 1.10,2013-01-12 13:18:00,
2013-01-12 07:33:00,47.5,37.0,29.90,WNW,300,6.0,13.0,68,0.00,,,0.00,weatherlink.com 1.10,2013-01-12 13:33:00,
2013-01-12 07:48:00,45.6,37.0,29.91,WNW,292,3.0,8.0,73,0.00,,,0.00,weatherlink.com 1.10,2013-01-12 13:48:00,
2013-01-12 08:03:00,44.9,37.0,29.91,WNW,301,2.0,8.0,73,0.00,,,0.00,weatherlink.com 1.10,2013-01-12 14:03:00,
2013-01-12 08:18:00,44.3,36.0,29.93,WNW,282,3.0,11.0,72,0.00,,,0.00,weatherlink.com 1.10,2013-01-12 14:18:00,
2013-01-12 08:33:00,42.8,34.0,29.95,WNW,283,3.0,10.0,70,0.00,,,0.00,weatherlink.com 1.10,2013-01-12 14:33:00,
2013-01-12 08:48:00,42.2,34.0,29.95,WNW,284,3.0,7.0,74,0.00,,,0.00,weatherlink.com 1.10,2013-01-12 14:48:00,
2013-01-12 09:18:00,41.6,35.0,29.96,WNW,303,3.0,8.0,77,0.00,,,0.00,weatherlink.com 1.10,2013-01-12 15:18:00,
2013-01-12 09:33:00,40.9,34.0,29.98,NNW,328,4.0,9.0,76,0.00,,,0.00,weatherlink.com 1.10,2013-01-12 15:33:00,
2013-01-12 09:48:00,40.3,33.0,29.98,NNW,328,2.0,9.0,75,0.00,,,0.00,weatherlink.com 1.10,2013-01-12 15:48:00,
2013-01-12 10:03:00,39.9,32.0,29.99,NW,323,4.0,8.0,74,0.00,,,0.00,weatherlink.com 1.10,2013-01-12 16:03:00,
2013-01-12 10:18:00,40.5,32.0,29.98,WNW,293,4.0,8.0,73,0.00,,,0.00,weatherlink.com 1.10,2013-01-12 16:18:00,
2013-01-12 10:33:00,40.8,32.0,29.98,NW,314,4.0,9.0,72,0.00,,,0.00,weatherlink.com 1.10,2013-01-12 16:33:00,
2013-01-12 10:48:00,41.2,33.0,29.98,WNW,287,5.0,6.0,72,0.00,,,0.00,weatherlink.com 1.10,2013-01-12 16:48:00,
2013-01-12 11:03:00,40.8,33.0,29.97,NNW,329,3.0,13.0,73,0.00,,,0.00,weatherlink.com 1.10,2013-01-12 17:03:00,
2013-01-12 11:18:00,41.0,32.0,29.96,WSW,252,7.0,8.0,71,0.00,,,0.00,weatherlink.com 1.10,2013-01-12 17:18:00,
2013-01-12 11:33:00,41.2,33.0,29.96,NNW,334,3.0,8.0,72,0.00,,,0.00,weatherlink.com 1.10,2013-01-12 17:33:00,
2013-01-12 11:48:00,41.2,34.0,29.96,WNW,291,3.0,8.0,74,0.00,,,0.00,weatherlink.com 1.10,2013-01-12 17:48:00,
2013-01-12 12:03:00,41.5,33.0,29.96,West,280,4.0,5.0,71,0.00,,,0.00,weatherlink.com 1.10,2013-01-12 18:03:00,
2013-01-12 12:19:00,40.7,32.0,29.96,NW,310,2.0,6.0,72,0.00,,,0.00,weatherlink.com 1.10,2013-01-12 18:19:00,
2013-01-12 12:33:00,40.1,33.0,29.96,NW,307,3.0,6.0,75,0.00,,,0.00,weatherlink.com 1.10,2013-01-12 18:33:00,
2013-01-12 12:48:00,39.7,32.0,29.97,NNW,339,4.0,9.0,75,0.00,,,0.00,weatherlink.com 1.10,2013-01-12 18:48:00,
2013-01-12 13:03:00,40.0,33.0,29.96,WNW,284,1.0,9.0,75,0.00,,,0.00,weatherlink.com 1.10,2013-01-12 19:03:00,
2013-01-12 13:18:00,40.1,32.0,29.95,North,356,0.0,6.0,74,0.00,,,0.00,weatherlink.com 1.10,2013-01-12 19:18:00,
2013-01-12 13:33:00,39.9,32.0,29.96,WNW,285,2.0,5.0,73,0.00,,,0.00,weatherlink.com 1.10,2013-01-12 19:33:00,
2013-01-12 13:48:00,39.6,31.0,29.97,WNW,291,2.0,8.0,71,0.00,,,0.00,weatherlink.com 1.10,2013-01-12 19:48:00,
2013-01-12 14:04:00,39.1,31.0,29.98,WNW,302,1.0,6.0,72,0.00,,,0.00,weatherlink.com 1.10,2013-01-12 20:04:00,
2013-01-12 14:19:00,39.2,31.0,29.97,WNW,290,0.0,7.0,72,0.00,,,0.00,weatherlink.com 1.10,2013-01-12 20:19:00,
2013-01-12 14:34:00,39.8,31.0,29.98,WNW,284,2.0,3.0,72,0.00,,,0.00,weatherlink.com 1.10,2013-01-12 20:34:00,
2013-01-12 14:49:00,39.3,31.0,29.98,West,266,1.0,6.0,72,0.00,,,0.00,weatherlink.com 1.10,2013-01-12 20:49:00,
2013-01-12 15:04:00,38.7,30.0,29.98,NW,307,2.0,9.0,71,0.00,,,0.00,weatherlink.com 1.10,2013-01-12 21:04:00,
2013-01-12 15:19:00,37.8,29.0,29.98,NW,307,4.0,8.0,70,0.00,,,0.00,weatherlink.com 1.10,2013-01-12 21:19:00,
2013-01-12 15:34:00,37.1,28.0,29.98,NNW,343,4.0,9.0,71,0.00,,,0.00,weatherlink.com 1.10,2013-01-12 21:34:00,
2013-01-12 15:49:00,36.5,28.0,29.96,NNE,26,10.0,10.0,71,0.00,,,0.00,weatherlink.com 1.10,2013-01-12 21:49:00,
2013-01-12 16:04:00,35.8,28.0,29.95,NNE,22,3.0,8.0,72,0.00,,,0.00,weatherlink.com 1.10,2013-01-12 22:04:00,
2013-01-12 16:19:00,35.2,27.0,29.95,WNW,283,2.0,12.0,72,0.00,,,0.00,weatherlink.com 1.10,2013-01-12 22:19:00,
2013-01-12 16:34:00,34.6,26.0,29.96,NNW,330,2.0,8.0,72,0.00,,,0.00,weatherlink.com 1.10,2013-01-12 22:34:00,
2013-01-12 16:49:00,33.7,26.0,29.93,North,1,9.0,13.0,74,0.00,,,0.00,weatherlink.com 1.10,2013-01-12 22:49:00,
2013-01-12 17:04:00,33.0,26.0,29.91,North,8,7.0,15.0,76,0.00,,,0.00,weatherlink.com 1.10,2013-01-12 23:04:00,
2013-01-12 17:19:00,32.7,26.0,29.93,NW,319,3.0,14.0,76,0.00,,,0.00,weatherlink.com 1.10,2013-01-12 23:19:00,
2013-01-12 17:34:00,32.3,26.0,29.93,North,352,9.0,13.0,77,0.00,,,0.00,weatherlink.com 1.10,2013-01-12 23:34:00,
2013-01-12 17:49:00,31.6,26.0,29.94,North,1,7.0,12.0,79,0.00,,,0.00,weatherlink.com 1.10,2013-01-12 23:49:00,
2013-01-12 18:04:00,31.1,26.0,29.93,NNW,344,6.0,14.0,82,0.00,,,0.00,weatherlink.com 1.10,2013-01-13 00:04:00,
2013-01-12 18:19:00,30.8,26.0,29.95,WNW,298,3.0,12.0,82,0.00,,,0.00,weatherlink.com 1.10,2013-01-13 00:19:00,
2013-01-12 18:34:00,30.7,26.0,29.96,NNW,340,4.0,11.0,82,0.00,,,0.00,weatherlink.com 1.10,2013-01-13 00:34:00,
2013-01-12 18:49:00,30.4,26.0,29.95,NNW,343,9.0,11.0,83,0.00,,,0.00,weatherlink.com 1.10,2013-01-13 00:49:00,
2013-01-12 19:04:00,30.2,26.0,29.95,North,356,6.0,11.0,84,0.00,,,0.00,weatherlink.com 1.10,2013-01-13 01:04:00,
2013-01-12 19:20:00,30.2,26.0,29.96,WNW,291,4.0,13.0,84,0.00,,,0.00,weatherlink.com 1.10,2013-01-13 01:20:00,
2013-01-12 19:34:00,29.8,26.0,29.95,NW,318,11.0,15.0,85,0.00,,,0.00,weatherlink.com 1.10,2013-01-13 01:34:00,
2013-01-12 19:50:00,29.6,26.0,29.95,West,270,6.0,14.0,86,0.01,,,0.01,weatherlink.com 1.10,2013-01-13 01:50:00,
2013-01-12 20:05:00,29.4,26.0,29.94,WSW,255,2.0,14.0,88,0.01,,,0.01,weatherlink.com 1.10,2013-01-13 02:05:00,
2013-01-12 20:20:00,28.6,25.0,29.93,WNW,302,6.0,15.0,87,0.01,,,0.01,weatherlink.com 1.10,2013-01-13 02:20:00,
2013-01-12 20:35:00,28.1,25.0,29.92,NE,44,3.0,12.0,89,0.01,,,0.01,weatherlink.com 1.10,2013-01-13 02:35:00,
2013-01-12 20:50:00,27.7,25.0,29.93,NE,46,3.0,12.0,90,0.00,,,0.01,weatherlink.com 1.10,2013-01-13 02:50:00,
2013-01-12 21:05:00,27.5,25.0,29.92,NNW,346,4.0,15.0,91,0.00,,,0.01,weatherlink.com 1.10,2013-01-13 03:05:00,
2013-01-12 21:20:00,27.5,25.0,29.92,North,6,5.0,11.0,91,0.00,,,0.01,weatherlink.com 1.10,2013-01-13 03:20:00,
2013-01-12 21:35:00,27.3,25.0,29.93,NW,325,4.0,10.0,91,0.00,,,0.01,weatherlink.com 1.10,2013-01-13 03:35:00,
2013-01-12 21:50:00,27.4,25.0,29.94,NW,314,4.0,12.0,91,0.00,,,0.01,weatherlink.com 1.10,2013-01-13 03:50:00,
2013-01-12 22:05:00,27.5,26.0,29.95,NW,307,1.0,9.0,92,0.00,,,0.01,weatherlink.com 1.10,2013-01-13 04:05:00,
2013-01-12 22:20:00,27.4,25.0,29.94,NNW,346,1.0,8.0,92,0.00,,,0.01,weatherlink.com 1.10,2013-01-13 04:20:00,
2013-01-12 22:35:00,27.3,25.0,29.95,West,278,2.0,8.0,92,0.00,,,0.01,weatherlink.com 1.10,2013-01-13 04:35:00,
2013-01-12 22:50:00,27.0,25.0,29.97,WNW,294,1.0,7.0,91,0.00,,,0.01,weatherlink.com 1.10,2013-01-13 04:50:00,
2013-01-12 23:05:00,26.2,24.0,29.96,NNW,331,4.0,12.0,90,0.00,,,0.01,weatherlink.com 1.10,2013-01-13 05:05:00,
2013-01-12 23:20:00,25.6,23.0,29.96,NW,307,2.0,12.0,91,0.00,,,0.01,weatherlink.com 1.10,2013-01-13 05:20:00,
2013-01-12 23:35:00,25.3,23.0,29.96,NW,321,2.0,11.0,91,0.00,,,0.01,weatherlink.com 1.10,2013-01-13 05:35:00,
2013-01-12 23:50:00,25.1,23.0,29.96,ENE,67,5.0,7.0,91,0.00,,,0.01,weatherlink.com 1.10,2013-01-13 05:50:00,